Simultaneous Nadir Overpasses (SNOs) Predictions

Prediction of SNOs between AQUA and NPP Satellite Orbit:

Table of predicted SNOs for the next 14.0 days since TLE Epoch: 2/26/2016
Index Date (AQUA) Time (AQUA) Lat,Lon (AQUA) SZA (AQUA ) Date (NPP) Time (NPP) Lat,Lon (NPP) SZA (NPP ) Distance(km) Time Diff (sec)
1 02/28/2016 21:03:56 61.50, 83.30 120.30 02/28/2016 21:02:43 61.65, 82.35 120.59 53.19 73
2 02/28/2016 21:49:10 -75.47, -89.68 73.83 02/28/2016 21:49:08 -75.47, -89.64 73.84 1.19 2
3 02/28/2016 22:37:20 78.93, 91.89 101.91 02/28/2016 22:38:34 78.80, 92.31 101.82 17.25 74
4 03/02/2016 13:16:35 74.37,-144.28 106.38 03/02/2016 13:15:38 74.37,-144.27 106.43 0.30 57
5 03/02/2016 14:05:35 -75.76, 27.05 75.19 03/02/2016 14:05:55 -75.76, 27.05 75.21 0.28 20
6 03/05/2016 05:32:56 74.86, -27.19 104.80 03/05/2016 05:32:21 74.86, -27.18 104.83 0.38 35
7 03/05/2016 06:21:57 -76.18, 144.22 76.71 03/05/2016 06:22:39 -76.18, 144.25 76.76 0.83 42
8 03/07/2016 21:49:15 75.43, 90.21 103.11 03/07/2016 21:49:02 75.44, 90.27 103.11 1.95 13
9 03/07/2016 22:38:18 -76.63, -98.41 78.29 03/07/2016 22:39:22 -76.64, -98.31 78.37 2.81 64
10 03/10/2016 13:16:39 -74.40, 35.78 76.80 03/10/2016 13:15:32 -74.41, 35.83 76.75 1.38 67
11 03/10/2016 14:05:40 75.63,-153.34 101.83 03/10/2016 14:05:50 75.62,-153.37 101.82 0.75 10




NCC Satellite Simultaneous Nadir Overpasses (SNOs) Prediction Service
